Find Starlink 31561

NORAD ID: 59352 Int'l Des: 2024-060 Owner: SPXS Country: US Constellation: starlink operational
LEOCIRCULAR

Current View

Loading 3D Globe...

About Starlink 31561

Starlink 31561 (NORAD 59352) is a starlink constellation satellite (v2 mini) launched Mar 31, 2024 by SPXS of US. It operates in LEO, CIRCULAR orbit with a mass of 730.00 kg.

About Starlink 31561

Description loading...

Upcoming Passes

Passes for default location (London). Set your location on the main map for personalized predictions.

Altitude History

Loading altitude history...

Two-Line Element Set

1 59352U 24060E 26171.31975713 .00000302 00000-0 20500-4 0 9995
2 59352 43.0044 39.8359 0000952 289.9173 70.1577 15.27581344125761
Epoch: Jun 20, 2026 • Age: 24 hours

Current Status

Altitude 482.5 km
Velocity 7.63 km/s
Sub-Earth Point 10.19°N, 174.56°E
Launch Date Mar 31, 2024
Age 2.2 years
Type internet

Technical Details

Classification Payload
Mass 730.00 kg
Dry Mass 700.00 kg
Total Mass 730.00 kg
Length 0.30 m
Diameter 4.10 m
Span 29.00 m
Shape Box + pan
Manufacturer SPXS
Bus Type Starlink V2M
Phase Status In Orbit
Owner/State SPXS/US

Most Searched